Weather History for Crestview, FL

Change the Weather History Date:

Saturday, April 20, 2013

  Actual Average Record
Temperature  
Mean Temperature 56 °F -  
Max Temperature 69 °F 80 °F 90 °F (2002)
Min Temperature 44 °F 53 °F 36 °F (2001)
Degree Days  
Heating Degree Days 8    
Growing Degree Days 6 (Base 50)    
Moisture  
Dew Point 40 °F    
Average Humidity 63    
Maximum Humidity 93    
Minimum Humidity 32    
Precipitation  
Precipitation 0.00 in - - ()
Sea Level Pressure  
Sea Level Pressure 30.19 in    
Wind  
Wind Speed 6 mph (NNE)    
Max Wind Speed 13 mph    
Max Gust Speed 20 mph    
Visibility 10 miles    
Events      
Averages and records for this station are not official NWS values.
T = Trace of Precipitation, MM = Missing Value Source: NWS Daily Summary

Daily Weather History Graph

Daily Weather History Graph

Search for Another Location

Airport:

Trip Planner

Search our weather history database for the weather conditions in past years. The results will help you decide how hot, cold, wet, or windy it might be!

Date:

Astronomy

Apr. 20, 2013 Rise Set
Actual Time 6:12 AM CDT 7:17 PM CDT
Civil Twilight 5:47 AM CDT 7:42 PM CDT
Nautical Twilight 5:18 AM CDT 8:12 PM CDT
Astronomical Twilight 4:47 AM CDT 8:42 PM CDT
Moon 2:21 PM CDT (4/20) 2:39 AM CDT (4/20)
Length of Visible Light 13h 54m
Length of Day
13h 04m
Waxing Gibbous, 71% of the Moon is Illuminated
Apr 20
Waxing Gibbous
Apr 25
Full
May 2
Last Quarter
May 9
New
May 17
First Quarter

Hourly Weather History & Observations

Time (CDT) Temp. Windchill Dew Point Humidity Pressure Visibility Wind Dir Wind Speed Gust Speed Precip Events Conditions
12:53 AM 50.0 °F - 46.9 °F 89% 30.15 in 10.0 mi NW 5.8 mph - N/A   Clear
1:53 AM 48.9 °F - 46.0 °F 90% 30.15 in 10.0 mi NW 5.8 mph - N/A   Clear
2:53 AM 48.0 °F - 44.1 °F 86% 30.16 in 10.0 mi NNW 8.1 mph - N/A   Clear
3:53 AM 46.9 °F - 42.1 °F 83% 30.16 in 10.0 mi North 5.8 mph - N/A   Clear
4:53 AM 46.0 °F 43.1 °F 39.9 °F 79% 30.17 in 10.0 mi North 5.8 mph - N/A   Clear
5:53 AM 44.1 °F 41.5 °F 39.9 °F 85% 30.20 in 10.0 mi North 4.6 mph - N/A   Clear
6:53 AM 44.1 °F 42.5 °F 39.9 °F 85% 30.22 in 10.0 mi North 3.5 mph - N/A   Clear
7:53 AM 46.9 °F - 39.9 °F 77% 30.24 in 10.0 mi North 6.9 mph - N/A   Clear
8:53 AM 52.0 °F - 39.0 °F 61% 30.25 in 10.0 mi NNE 9.2 mph - N/A   Clear
9:53 AM 55.9 °F - 37.9 °F 51% 30.25 in 10.0 mi NNE 8.1 mph 17.3 mph N/A   Partly Cloudy
10:53 AM 59.0 °F - 36.0 °F 42% 30.26 in 10.0 mi NE 12.7 mph 19.6 mph N/A   Clear
11:53 AM 62.1 °F - 36.0 °F 38% 30.24 in 10.0 mi NE 11.5 mph - N/A   Clear
12:53 PM 63.0 °F - 36.0 °F 37% 30.21 in 10.0 mi ENE 12.7 mph 18.4 mph N/A   Clear
1:53 PM 64.9 °F - 37.0 °F 36% 30.19 in 10.0 mi NE 8.1 mph - N/A   Clear
2:53 PM 68.0 °F - 37.0 °F 32% 30.17 in 10.0 mi NNE 8.1 mph 19.6 mph N/A   Clear
3:53 PM 69.1 °F - 39.0 °F 33% 30.15 in 10.0 mi North 8.1 mph 16.1 mph N/A   Clear
4:53 PM 69.1 °F - 39.0 °F 33% 30.14 in 10.0 mi NNE 5.8 mph - N/A   Clear
5:53 PM 66.9 °F - 37.0 °F 33% 30.14 in 10.0 mi NE 8.1 mph - N/A   Clear
6:20 PM 66.2 °F - 37.4 °F 35% 30.15 in 10.0 mi NE 5.8 mph - N/A   Partly Cloudy
6:53 PM 63.0 °F - 39.9 °F 43% 30.16 in 10.0 mi NNE 4.6 mph - N/A   Clear
7:53 PM 54.0 °F - 46.0 °F 75% 30.18 in 10.0 mi Calm Calm - N/A   Clear
8:53 PM 50.0 °F - 45.0 °F 83% 30.19 in 10.0 mi Calm Calm - N/A   Clear
9:53 PM 48.0 °F - 44.1 °F 86% 30.22 in 10.0 mi Calm Calm - N/A   Clear
10:53 PM 46.0 °F - 42.1 °F 86% 30.22 in 10.0 mi Calm Calm - N/A   Clear
11:53 PM 44.1 °F - 42.1 °F 93% 30.22 in 10.0 mi Calm Calm - N/A   Clear